Regional Weather Roundup
Issued by NWS Northern Indiana

Home | Current Version | Previous Version | Text Only | Print | Product List | Glossary On
Versions: 1 2 3 4 5 6 7 8 9 10 11 12 13 14 15 16 17 18 19 20 21 22 23 24 25 26 27 28 29 30 31 32 33 34 35 36 37 38 39 40 41 42 43 44 45 46 47 48 49 50
000
ASUS43 KIWX 180810
RWRIWX

KIWX WEATHER ROUNDUP
NATIONAL WEATHER SERVICE NORTHERN INDIANA
300 AM EST THU JAN 18 2018

NOTE: "FAIR" INDICATES FEW OR NO CLOUDS BELOW 12,000 FEET WITH NO
SIGNIFICANT WEATHER AND/OR OBSTRUCTIONS TO VISIBILITY.

* THESE STATIONS ARE NOT UNDER NWS QUALITY CONTROL. THEY ALSO MAY NOT
  REPORT WEATHER SUCH AS PRECIPITATION OR FOG.

INZ001>027-180900-
NORTHERN INDIANA

CITY           SKY/WX    TMP DP  RH WIND       PRES   REMARKS
GARY*          FAIR      19   9  64 SW10G20   30.23S WCI   8
VALPARAISO     FAIR      16   8  71 SW17      30.23S WCI   0
MICHIGAN CITY* FAIR      18   9  68 SW10      30.22F WCI   6
LAPORTE*       FAIR      13   8  78 SW10      30.22S WCI   0
KNOX*          FAIR      18  10  73 SW16G22   30.24S WCI   3
SOUTH BEND     FAIR      14   8  77 SW16      30.20F WCI  -2
GOSHEN         FAIR      14   8  77 SW16G26   30.21S WCI  -2
MONTICELLO*    FAIR      15   7  69 SW17      30.27F WCI  -1
LOGANSPORT*    FAIR      12   9  85 SW14      30.29S WCI  -3
ROCHESTER*     FAIR      18  10  73 SW14G22   30.25S WCI   4
WARSAW*        FAIR      14   9  79 SW10      30.23S WCI   1
AUBURN*        FAIR      14 -24  17 SW10G16   30.22R WCI   1
FORT WAYNE     FAIR      14   7  73 SW15      30.25F WCI  -1
HUNTINGTON*    FAIR      12   6  76 SW8       30.26S WCI   0
PERU/GRISSOM   FAIR      15   9  79 W20       30.26F WCI  -3
MARION*        FAIR      11   7  83 SW14      30.30S WCI  -4

$$
INZ028>050-180900-
CENTRAL INDIANA

CITY           SKY/WX    TMP DP  RH WIND       PRES   REMARKS
LAFAYETTE      FAIR      14   8  77 SW10      30.32F WCI   1
MUNCIE*        FAIR      13   5  70 SW13G22   30.30S WCI  -2
INDIANAPOLIS   FAIR      10   5  80 SW12      30.36F WCI  -5

$$
MIZ043>046-050>051-056>058-064>065-071>073-077>080-180900-
SOUTHWEST LOWER MICHIGAN

CITY           SKY/WX    TMP DP  RH WIND       PRES   REMARKS
BATTLE CREEK   FAIR      14   8  77 SW16      30.10S WCI  -2
BENTON HARBOR  FAIR      22  14  71 SW21G28   30.18S WCI   6
COLDWATER*     FAIR      14   9  78 SW13      30.13F WCI   0
HILLSDALE*     FAIR      14   9  79 SW14G24   30.09F WCI  -1
HOLLAND        FAIR      25  17  72 W24G32    30.11S WCI   9
GRAND RAPIDS   MOCLDY    23  16  74 W21       30.07S WCI   8
KALAMAZOO      FAIR      15   8  73 SW14      30.13S WCI   0
STURGIS*       FAIR      16  10  77 SW15      30.15F WCI   1
THREE RIVERS*  FAIR      17   9  72 SW7G16    30.16F WCI   7

$$
OHZ001>008-015>018-024>025-180900-
NORTHWEST OHIO

CITY           SKY/WX    TMP DP  RH WIND       PRES   REMARKS
WAUSEON*       FAIR      14  10  85 SW16      30.18S WCI  -2
DEFIANCE       FAIR      14   6  70 SW12G20   30.22S WCI   0
FINDLAY        FAIR      16   5  62 SW21G26   30.22F WCI  -1
TOLEDO EXPRESS FAIR      14   9  80 SW18G28   30.19S WCI  -3
TOLEDO METCALF FAIR      14   7  73 SW16      30.21R WCI  -2
LIMA           FAIR      13   6  74 SW21      30.24F WCI  -5

$$
AND FOR LAKE MICHIGAN COASTAL AND OPEN LAKE BUOY OBSERVATIONS

STATION/POSITION TEMP    WIND        PRES    VSBY  WAVE
                 AIR SEA DIR/SP/G                  HT/PER
                 (F)     (DEG/KT/KT) (MB)    (MI)  (FT/S)
CALUMET HARBOR    18     220/ 12/ 20 1021.9F
MICHIGAN CITY     17     210/ 17/ 19   N/A
BURNS HARBOR      17     220/ 13/ 18 1024.0S
SAINT JOSEPH      23     230/ 22/ 28 1022.4

$$
&&



USA.gov is the U.S. government's official web portal to all federal, state and local government web resources and services.